{"data":{"norad_id":55399,"epoch":"2026-09-20T19:15:52.916256Z","epoch_age_seconds":70531,"freshness":"FRESH","line1":"1 55399U 23014J   26263.80269579 -.00000273  00000+0 -15099-4 0  9997","line2":"2 55399  69.9979 292.4190 0003736 269.0747  90.9984 14.98329458201288","mean_motion":14.98329458,"eccentricity":0.0003736,"inclination_deg":69.9979,"raan_deg":292.419,"arg_perigee_deg":269.0747,"mean_anomaly_deg":90.9984,"bstar":-1.5099e-5,"rev_number":20128,"period_min":96.107033891074,"perigee_km":569.46097434497,"apogee_km":574.65415972546,"semimajor_km":6950.1945670352,"source":"CELESTRAK","updated_at":"2026-09-21T09:00:33.214762Z"}}